[[{"header":{"parameterUnit":"m.s-1","parameterCategory":1,"la1":30.2991,"la2":30.254,"lo1":-89.0895,"lo2":-89.0444,"dy":0.0017,"dx":0.0017,"nx":28,"ny":28,"refTime":"2024-12-21T03:00:00:Z","depth":0,"parameterNumber":2,"parameterNumberName":"U-component_of_WINDS"},"data":[0,0,0,0,0,0,0,0,0,0,0,0,0,0,0,0,0,0,0,0,0,0,0,0,0,0,0,0,0,0,0,0,0,0,0,0,0,0,0,0,0,0,0,0,0,0,0,0,0,0,0,0,0,0,0,0,0,0,-2.2359,-2.2359,0,-2.2411,-2.2412,-2.2412,-2.2358,-2.2356,-2.2353,-2.2351,-2.2407,-2.241,-2.2413,0,0,0,0,0,0,0,0,0,0,0,0,0,-2.2211,-2.2214,-2.2358,-2.2359,-2.236,-2.2411,-2.2412,-2.2413,-2.2358,-2.2356,-2.2353,-2.2351,-2.2405,-2.241,-2.2414,0,0,0,0,0,0,0,0,0,0,0,0,0,-2.2271,-2.2215,-2.2358,-2.2339,-2.2338,-2.2411,-2.2412,-2.2413,-2.2359,-2.2355,-2.2352,-2.2349,-2.2404,-2.2409,-2.2414,-2.251,0,0,-2.243,-2.2432,0,0,0,0,0,0,0,0,-2.2267,-2.2276,-2.2341,-2.234,-2.2339,-2.2375,-2.238,-2.2445,-2.2359,-2.2351,-2.2351,-2.2348,-2.2399,-2.2404,-2.2421,-2.2513,-2.2515,-2.2431,-2.2434,-2.2436,-2.2437,0,0,0,0,0,0,0,-2.2263,-2.2274,-2.2379,-2.2342,-2.2341,-2.2327,-2.2332,-2.2392,-2.2392,-2.2351,-2.2347,-2.2354,-2.2397,-2.2416,-2.2422,-2.2516,-2.243,-2.2435,-2.2438,-2.244,-2.2688,-2.2691,0,0,0,0,0,0,-2.2261,-2.227,-2.2378,-2.2381,-2.2295,-2.2333,-2.2338,-2.2366,-2.2391,-2.2392,-2.2357,-2.2352,-2.2409,-2.2416,-2.2424,-2.2537,-2.2436,-2.2441,-2.2444,-2.2684,-2.2688,-2.2692,0,0,0,0,0,0,-2.2258,-2.2271,-2.2376,-2.2325,-2.2337,-2.2339,-2.2371,-2.2369,-2.2388,-2.2395,-2.2395,-2.2376,-2.2407,-2.2416,-2.2489,-2.2538,-2.2443,-2.2448,-2.268,-2.2685,-2.269,-2.2764,0,0,0,0,0,0,-2.2254,-2.2271,-2.2307,-2.2326,-2.234,-2.244,-2.2374,-2.2372,-2.2397,-2.239,-2.2413,-2.2414,-2.2405,-2.2481,-2.2494,-2.2543,-2.2452,-2.2676,-2.2682,-2.2689,-2.2757,-2.2771,-2.2783,0,0,0,0,0,-2.2249,-2.2326,-2.2309,-2.2322,-2.2385,-2.2443,-2.2451,-2.2438,-2.2401,-2.2437,-2.2442,-2.2413,-2.253,-2.2489,-2.2503,-2.2555,-2.2672,-2.2681,-2.2688,-2.2752,-2.2769,-2.2783,0,0,0,0,0,0,-2.2314,-2.2328,-2.231,-2.2395,-2.2418,-2.2433,-2.2479,-2.2457,-2.2491,-2.2484,-2.2467,-2.2473,-2.2549,-2.2559,-2.2513,-2.2648,-2.2595,-2.2606,-2.2639,-2.2655,-2.2668,-2.2664,-2.2456,0,0,0,0,0,-2.2338,-2.2383,-2.2393,-2.2468,-2.248,-2.2478,-2.2502,-2.2491,-2.2514,-2.2524,-2.2534,-2.2558,-2.26,-2.2628,-2.2667,-2.2758,-2.2763,-2.2801,-2.2814,-2.2824,-2.2834,-2.2882,-2.2899,-2.2718,-2.2718,-2.2718,0,0,-2.2388,-2.2402,-2.2431,-2.2481,-2.2497,-2.2545,-2.2486,-2.2539,-2.2574,-2.2532,-2.26,-2.2609,-2.2634,-2.2716,-2.2753,-2.2727,-2.2885,-2.2834,-2.2843,-2.2847,-2.2892,-2.2909,-2.2925,-2.2723,-2.2722,-2.2721,0,0,-2.2504,-2.2519,-2.2582,-2.2599,-2.2625,-2.2623,-2.2638,-2.2657,-2.266,-2.2729,-2.2698,-2.2739,-2.2812,-2.2832,-2.2851,-2.2973,-2.2948,-2.2987,-2.3054,-2.3102,-2.3116,-2.3128,-2.3172,-2.3188,-2.2996,-2.2996,-2.2996,0,-2.2563,-2.2633,-2.2617,-2.2672,-2.2695,-2.2658,-2.2721,-2.2739,-2.2777,-2.2793,-2.2763,-2.2853,-2.2868,-2.2954,-2.2984,-2.3001,-2.3017,-2.2984,-2.3115,-2.3128,-2.3139,-2.318,-2.3197,-2.3001,-2.3,-2.3,-2.2999,0,-2.2705,-2.2753,-2.2801,-2.2838,-2.2865,-2.2925,-2.2918,-2.2948,-2.2934,-2.2935,-2.3005,-2.3021,-2.3062,-2.3082,-2.3069,-2.3166,-2.3149,-2.3117,-2.3064,-2.3161,-2.32,-2.3215,-2.3007,-2.3006,-2.3004,-2.3003,0,0,-2.2863,-2.2889,-2.2907,-2.2923,-2.2948,-2.2985,-2.3042,-2.3082,-2.3108,-2.3135,-2.3183,-2.3245,-2.3215,-2.3238,-2.3226,-2.3268,-2.3363,-2.3231,-2.3231,-2.3255,-2.3471,-2.3494,-2.3513,-2.3346,-2.3349,-2.3352,-2.3469,0,-2.298,-2.3078,-2.3065,-2.316,-2.3205,-2.317,-2.322,-2.324,-2.3243,-2.3281,-2.3283,-2.3328,-2.3286,-2.3299,-2.3339,-2.3343,-2.3406,-2.3335,-2.339,-2.3393,-2.3385,-2.3533,-2.3558,-2.3668,-2.3483,-2.3486,-2.3488,0,-2.3129,-2.316,-2.3259,-2.3276,-2.3294,-2.3339,-2.3374,-2.3411,-2.3434,-2.3433,-2.3457,-2.3438,-2.3495,-2.3441,-2.3519,-2.3471,-2.3493,-2.3498,-2.3502,-2.3507,-2.3446,-2.3542,-2.3703,-2.3719,-2.3511,-2.351,-2.3508,0,-2.3234,-2.3301,-2.3369,-2.3383,-2.3405,-2.3437,-2.3448,-2.3467,-2.3492,-2.3523,-2.3538,-2.3576,-2.3597,-2.3626,-2.3618,-2.3579,-2.3698,-2.3643,-2.3699,-2.3699,-2.3726,-2.3724,-2.3892,-2.374,-2.374,-2.3739,-2.3739,0,-2.3365,-2.3427,-2.3416,-2.3458,-2.3526,-2.3511,-2.3579,-2.3585,-2.3602,-2.3645,-2.3617,-2.3657,-2.3644,-2.3683,-2.3677,-2.3743,-2.3753,-2.3753,-2.3751,-2.3756,-2.3756,-2.377,-2.3762,-2.3744,-2.3743,-2.3742,-2.3741,0,-2.3495,-2.349,-2.3561,-2.3576,-2.3581,-2.3631,-2.3643,-2.3682,-2.3682,-2.3736,-2.3747,-2.3747,-2.3792,-2.3787,-2.3837,-2.3833,-2.3915,-2.3903,-2.3907,-2.3905,-2.3961,-2.3956,-2.4144,-2.4168,-2.4,-2.4002,-2.4003,0,-2.3579,-2.3626,-2.3645,-2.3671,-2.3684,-2.3726,-2.3751,-2.3737,-2.3764,-2.3793,-2.3829,-2.3871,-2.3904,-2.3978,-2.3983,-2.4021,-2.401,-2.4074,-2.4016,-2.4019,-2.4011,-2.4009,-2.4013,-2.4085,-2.4087,-2.4089,-2.409,0,-2.3729,-2.3724,-2.376,-2.3796,-2.3826,-2.3854,-2.3878,-2.3901,-2.389,-2.3922,-2.3967,-2.3993,-2.4044,-2.4087,-2.4123,-2.4134,-2.4111,-2.4108,-2.4123,-2.4129,-2.4129,-2.4129,-2.3938,-2.4104,-2.4103,-2.4102,-2.4101,-2.41,-2.3838,-2.3878,-2.3897,-2.3939,-2.3956,-2.3979,-2.4016,-2.402,-2.4058,-2.4098,-2.4088,-2.4139,-2.416,-2.4206,-2.4221,-2.4261,-2.4237,-2.4259,-2.4265,-2.427,-2.4277,-2.4122,-2.4267,-2.4267,-2.4266,-2.4266,-2.4266,0,-2.3987,-2.3997,-2.4035,-2.407,-2.4103,-2.4077,-2.4103,-2.4132,-2.4177,-2.4198,-2.4231,-2.4283,-2.4324,-2.4332,-2.4371,-2.4401,-2.4392,-2.4412,-2.441,-2.4413,-2.4295,-2.4279,-2.4419,-2.4419,-2.4419,-2.4419,-2.4419,-2.4419,-2.4068,-2.4133,-2.413,-2.4204,-2.4214,-2.4263,-2.428,-2.4302,-2.4318,-2.4377,-2.4411,-2.4415,-2.4431,-2.4471,-2.4507,-2.4508,-2.4524,-2.4549,-2.4546,-2.4436,-2.4421,-2.4406,-2.439,-2.4552,-2.4552,-2.4659,-2.466,-2.4661]},{"header":{"parameterUnit":"m.s-1","parameterCategory":1,"la1":30.2991,"la2":30.254,"lo1":-89.0895,"lo2":-89.0444,"dy":0.0017,"dx":0.0017,"nx":28,"ny":28,"refTime":"2024-12-21T03:00:00:Z","depth":0,"parameterNumber":3,"parameterNumberName":"V-component_of_WINDS"},"data":[0,0,0,0,0,0,0,0,0,0,0,0,0,0,0,0,0,0,0,0,0,0,0,0,0,0,0,0,0,0,0,0,0,0,0,0,0,0,0,0,0,0,0,0,0,0,0,0,0,0,0,0,0,0,0,0,0,0,-2.1044,-2.1045,0,-2.1133,-2.1134,-2.1135,-2.115,-2.115,-2.1149,-2.1148,-2.1237,-2.124,-2.1243,0,0,0,0,0,0,0,0,0,0,0,0,0,-2.0884,-2.0887,-2.1044,-2.1045,-2.1046,-2.1133,-2.1134,-2.1136,-2.115,-2.115,-2.1149,-2.1148,-2.1236,-2.124,-2.1244,0,0,0,0,0,0,0,0,0,0,0,0,0,-2.0961,-2.0888,-2.1044,-2.1064,-2.1067,-2.1133,-2.1134,-2.1136,-2.1151,-2.115,-2.1148,-2.1147,-2.1235,-2.124,-2.1244,-2.1295,0,0,-2.1258,-2.126,0,0,0,0,0,0,0,0,-2.0957,-2.0967,-2.106,-2.1063,-2.1066,-2.113,-2.1111,-2.1189,-2.1151,-2.1119,-2.1148,-2.1147,-2.1202,-2.1209,-2.1229,-2.13,-2.1303,-2.1259,-2.1261,-2.1263,-2.1265,0,0,0,0,0,0,0,-2.0951,-2.0963,-2.1079,-2.1062,-2.1065,-2.1068,-2.1078,-2.1126,-2.1166,-2.1122,-2.1123,-2.1133,-2.1204,-2.1224,-2.1231,-2.1305,-2.1259,-2.1263,-2.1265,-2.1267,-2.142,-2.1422,0,0,0,0,0,0,-2.0943,-2.0959,-2.1077,-2.1082,-2.1008,-2.1072,-2.1083,-2.111,-2.1165,-2.1173,-2.1134,-2.1134,-2.1217,-2.1225,-2.1234,-2.1297,-2.1263,-2.1268,-2.127,-2.1419,-2.1421,-2.1422,0,0,0,0,0,0,-2.0939,-2.0953,-2.1073,-2.1021,-2.1036,-2.1076,-2.1107,-2.1113,-2.1133,-2.1175,-2.1182,-2.1148,-2.1216,-2.1228,-2.128,-2.13,-2.127,-2.1274,-2.1418,-2.142,-2.1421,-2.1423,0,0,0,0,0,0,-2.0935,-2.0952,-2.0973,-2.1021,-2.1039,-2.1118,-2.1108,-2.1115,-2.1141,-2.1142,-2.119,-2.1196,-2.1216,-2.1273,-2.1284,-2.1306,-2.1278,-2.1416,-2.1418,-2.1421,-2.1421,-2.1425,-2.1428,0,0,0,0,0,-2.0929,-2.0969,-2.0974,-2.0988,-2.1066,-2.1119,-2.1129,-2.1152,-2.1143,-2.1164,-2.119,-2.1195,-2.1296,-2.1278,-2.1291,-2.1314,-2.1415,-2.1418,-2.1421,-2.142,-2.1424,-2.1428,0,0,0,0,0,0,-2.0922,-2.0976,-2.0981,-2.1039,-2.1074,-2.1122,-2.1149,-2.1156,-2.1194,-2.1193,-2.1218,-2.1229,-2.128,-2.1302,-2.1281,-2.1366,-2.1355,-2.136,-2.1349,-2.1354,-2.1357,-2.135,-2.1281,0,0,0,0,0,-2.0927,-2.0967,-2.1012,-2.1058,-2.1076,-2.1109,-2.1133,-2.1147,-2.1185,-2.12,-2.123,-2.1266,-2.1305,-2.1331,-2.137,-2.1425,-2.1434,-2.1447,-2.145,-2.1452,-2.1457,-2.1486,-2.1492,-2.1432,-2.1432,-2.1432,0,0,-2.0938,-2.0972,-2.0996,-2.1057,-2.1087,-2.1126,-2.1122,-2.1164,-2.1193,-2.1206,-2.1257,-2.128,-2.1322,-2.1375,-2.14,-2.1396,-2.1476,-2.1456,-2.1458,-2.1461,-2.149,-2.1495,-2.15,-2.1434,-2.1433,-2.1433,0,0,-2.0978,-2.1009,-2.105,-2.1079,-2.1124,-2.1145,-2.1155,-2.1201,-2.1217,-2.1269,-2.1279,-2.1314,-2.1382,-2.141,-2.1434,-2.1483,-2.1489,-2.1495,-2.1512,-2.154,-2.1545,-2.1549,-2.1566,-2.1571,-2.1499,-2.1499,-2.1499,0,-2.0986,-2.1047,-2.107,-2.1112,-2.1138,-2.1152,-2.1193,-2.122,-2.1275,-2.1292,-2.1286,-2.1371,-2.14,-2.1459,-2.1471,-2.149,-2.1501,-2.149,-2.1542,-2.1547,-2.1551,-2.1567,-2.1574,-2.15,-2.15,-2.15,-2.15,0,-2.1054,-2.1096,-2.1124,-2.1176,-2.1205,-2.1247,-2.1275,-2.1302,-2.1313,-2.1335,-2.1387,-2.1421,-2.1467,-2.1482,-2.1494,-2.1543,-2.1539,-2.1537,-2.1526,-2.1557,-2.1573,-2.1579,-2.1501,-2.15,-2.15,-2.15,0,0,-2.1093,-2.1157,-2.1167,-2.119,-2.1239,-2.1272,-2.1313,-2.1358,-2.1379,-2.1416,-2.145,-2.1507,-2.1506,-2.1532,-2.1547,-2.1571,-2.1607,-2.1567,-2.1568,-2.1572,-2.1662,-2.1663,-2.167,-2.1611,-2.1612,-2.1613,-2.1659,0,-2.1138,-2.1213,-2.1235,-2.1297,-2.1335,-2.1348,-2.1384,-2.1417,-2.1438,-2.1473,-2.1496,-2.1535,-2.1531,-2.1547,-2.1572,-2.1597,-2.1625,-2.1594,-2.1642,-2.1644,-2.1631,-2.1678,-2.1679,-2.172,-2.1665,-2.1666,-2.1667,0,-2.1202,-2.1239,-2.1306,-2.1349,-2.1366,-2.1398,-2.144,-2.1473,-2.151,-2.1524,-2.1553,-2.1565,-2.1607,-2.1593,-2.1651,-2.163,-2.165,-2.1665,-2.1667,-2.1672,-2.1657,-2.1684,-2.1734,-2.174,-2.1677,-2.1676,-2.1675,0,-2.1222,-2.129,-2.1338,-2.1358,-2.1409,-2.1431,-2.1453,-2.149,-2.1515,-2.1551,-2.1568,-2.1608,-2.1631,-2.1661,-2.1683,-2.1672,-2.1739,-2.1727,-2.175,-2.175,-2.1764,-2.1762,-2.1818,-2.1778,-2.1778,-2.1777,-2.1777,0,-2.1271,-2.131,-2.1348,-2.1378,-2.1422,-2.1446,-2.1489,-2.1512,-2.1544,-2.1577,-2.159,-2.1621,-2.1649,-2.1683,-2.17,-2.1744,-2.1755,-2.1766,-2.177,-2.1765,-2.1763,-2.1778,-2.1776,-2.1779,-2.1779,-2.1778,-2.1778,0,-2.1301,-2.1328,-2.1381,-2.1426,-2.1438,-2.1468,-2.1506,-2.1534,-2.1555,-2.1597,-2.1608,-2.1641,-2.1682,-2.1707,-2.1759,-2.177,-2.1819,-2.1822,-2.1806,-2.1808,-2.1829,-2.1827,-2.1896,-2.1906,-2.186,-2.186,-2.186,0,-2.133,-2.1361,-2.1409,-2.1432,-2.1455,-2.1493,-2.1518,-2.1542,-2.1568,-2.1612,-2.1635,-2.1677,-2.1711,-2.1775,-2.1803,-2.1842,-2.1846,-2.1868,-2.1852,-2.1846,-2.1846,-2.1844,-2.1846,-2.187,-2.1871,-2.1871,-2.1871,0,-2.1379,-2.139,-2.1427,-2.1468,-2.1498,-2.1532,-2.1565,-2.1583,-2.1613,-2.1641,-2.1683,-2.1709,-2.1762,-2.1802,-2.1844,-2.1866,-2.1873,-2.1876,-2.1883,-2.1878,-2.1867,-2.1872,-2.1813,-2.1874,-2.1874,-2.1874,-2.1874,-2.1874,-2.1409,-2.1437,-2.1474,-2.1514,-2.1542,-2.1572,-2.1601,-2.1625,-2.1661,-2.1706,-2.1717,-2.1761,-2.1796,-2.1852,-2.1875,-2.1909,-2.1905,-2.1916,-2.1919,-2.1921,-2.1921,-2.1862,-2.1916,-2.1916,-2.1916,-2.1916,-2.1916,0,-2.1458,-2.1482,-2.1519,-2.1565,-2.1596,-2.16,-2.1637,-2.1662,-2.1701,-2.1733,-2.1767,-2.1814,-2.1853,-2.1884,-2.1924,-2.1944,-2.1949,-2.1954,-2.1953,-2.1957,-2.1922,-2.1911,-2.195,-2.195,-2.195,-2.195,-2.195,-2.195,-2.1487,-2.1533,-2.1549,-2.1608,-2.1632,-2.1675,-2.1696,-2.1723,-2.1749,-2.1802,-2.1834,-2.1854,-2.1885,-2.1927,-2.1963,-2.1971,-2.1984,-2.1989,-2.1997,-2.1964,-2.196,-2.1956,-2.1947,-2.1992,-2.1992,-2.203,-2.203,-2.2031]}]]